Pensacola, FL

1:43 AM CDT on August 22, 2017 (GMT -0500)
Pensacola Regional

Weather History for KPNS - May, 2012

Change the Weather History Date:

Sunday, May 27, 2012

  Actual Average Record
Temperature  
Mean Temperature 87 °F 77 °F  
Max Temperature 97 °F 86 °F 102 °F (1953)
Min Temperature 77 °F 69 °F 50 °F (1961)
Cooling Degree Days 22 12  
Month to date cooling degree days 347 246  
Year to date cooling degree days 724 394  
Growing Degree Days 36 (Base 50)    
Moisture  
Dew Point 66 °F    
Average Humidity 50    
Maximum Humidity 67    
Minimum Humidity 33    
Precipitation  
Precipitation 0.00 in 0.13 in 2.92 in (2009)
Month to date precipitation 4.00 3.59  
Year to date precipitation 18.05 23.41  
Sea Level Pressure  
Sea Level Pressure 29.95 in    
Wind  
Wind Speed 6 mph (NNW)    
Max Wind Speed 13 mph    
Max Gust Speed 15 mph    
Visibility 9 miles    
Events      
T = Trace of Precipitation, MM = Missing Value Source: NWS Daily Summary

Daily Weather History Graph

Daily Weather History Graph

Search for Another Location

Airport or City:

Trip Planner

Search our weather history database for the weather conditions in past years. The results will help you decide how hot, cold, wet, or windy it might be!

Date:

Astronomy

May. 27, 2012 Rise Set
Actual Time 5:48 AM CDT 7:43 PM CDT
Civil Twilight 5:21 AM CDT 8:10 PM CDT
Nautical Twilight 4:48 AM CDT 8:43 PM CDT
Astronomical Twilight 4:13 AM CDT 9:18 PM CDT
Moon 11:38 AM CDT (5/27) 12:03 AM CDT (5/27)
Length of Visible Light 14h 49m
Length of Day
13h 55m
Waxing Crescent, 38% of the Moon is Illuminated
May 27
Waxing Crescent
May 28
First Quarter
Jun 4
Full
Jun 11
Last Quarter
Jun 19
New

Hourly Weather History & Observations

Time (CDT) Temp. Heat Index Dew Point Humidity Pressure Visibility Wind Dir Wind Speed Gust Speed Precip Events Conditions
12:53 AM 82.9 °F 85.0 °F 66.0 °F 56% 29.99 in 10.0 mi NNE 4.6 mph - N/A   Clear
1:53 AM 81.0 °F 82.7 °F 64.9 °F 58% 29.98 in 10.0 mi North 4.6 mph - N/A   Clear
2:53 AM 79.0 °F - 66.0 °F 64% 29.97 in 10.0 mi North 4.6 mph - N/A   Clear
3:53 AM 78.1 °F - 66.0 °F 66% 29.97 in 10.0 mi North 5.8 mph - N/A   Clear
4:53 AM 78.1 °F - 64.9 °F 64% 29.97 in 9.0 mi North 5.8 mph - N/A   Clear
5:53 AM 77.0 °F - 64.9 °F 66% 29.98 in 7.0 mi North 5.8 mph - N/A   Clear
6:53 AM 79.0 °F - 64.9 °F 62% 29.99 in 7.0 mi North 6.9 mph - N/A   Clear
7:53 AM 81.0 °F 83.0 °F 66.0 °F 60% 30.00 in 7.0 mi North 4.6 mph - N/A   Clear
8:53 AM 84.0 °F 87.0 °F 68.0 °F 58% 30.00 in 7.0 mi NNE 5.8 mph - N/A   Clear
9:53 AM 87.1 °F 89.9 °F 66.9 °F 51% 30.00 in 8.0 mi Variable 6.9 mph - N/A   Clear
10:53 AM 90.0 °F 92.8 °F 66.9 °F 46% 29.99 in 9.0 mi East 5.8 mph - N/A   Clear
11:53 AM 93.9 °F 97.5 °F 66.9 °F 41% 29.98 in 10.0 mi Variable 5.8 mph - N/A   Clear
12:53 PM 96.1 °F 97.3 °F 63.0 °F 33% 29.96 in 10.0 mi North 5.8 mph - N/A   Clear
1:53 PM 93.9 °F 98.6 °F 68.0 °F 43% 29.94 in 9.0 mi South 9.2 mph - N/A   Partly Cloudy
2:53 PM 93.9 °F 98.6 °F 68.0 °F 43% 29.92 in 10.0 mi South 6.9 mph - N/A   Partly Cloudy
3:53 PM 91.9 °F 94.5 °F 66.0 °F 42% 29.91 in 10.0 mi South 9.2 mph - N/A   Scattered Clouds
4:53 PM 91.9 °F 94.5 °F 66.0 °F 42% 29.91 in 10.0 mi South 8.1 mph - N/A   Scattered Clouds
5:53 PM 91.0 °F 92.6 °F 64.0 °F 41% 29.90 in 10.0 mi SW 9.2 mph - N/A   Clear
6:53 PM 89.1 °F 90.0 °F 63.0 °F 42% 29.90 in 10.0 mi WSW 8.1 mph - N/A   Clear
7:53 PM 87.1 °F 89.9 °F 66.9 °F 51% 29.91 in 10.0 mi WNW 8.1 mph - N/A   Clear
8:53 PM 84.9 °F 88.2 °F 68.0 °F 57% 29.92 in 10.0 mi WNW 4.6 mph - N/A   Clear
9:53 PM 82.9 °F 85.8 °F 68.0 °F 60% 29.93 in 10.0 mi Calm Calm - N/A   Clear
10:53 PM 81.0 °F 83.8 °F 68.0 °F 65% 29.92 in 10.0 mi NNW 4.6 mph - N/A   Clear
11:53 PM 80.1 °F 82.7 °F 68.0 °F 67% 29.91 in 10.0 mi North 3.5 mph - N/A   Clear